VRE711 DIAP-GMMN

Flight info

Callsign VRE711
Flight time N/A
Altitude 38000
Route IRPEG UG851 BKO UM122 OPARA UR977 ANUMU UM122 EREMO UR977 TAPUS UM122 IPONA UR977 POVAS/N0460F400 UM122 EBATI UR977 BULIS UM372 MAK UR722 FOBAC
Aircraft A339/H-SADE1E2E3GHIJ1J3J5M1P2RWXY/LB2D1

Departure

Time N/A
Airport Félix-Houphouët-Boigny International Airport (DIAP)

Arrival

Time 2026-04-27 00:53
Airport Mohammed V International Airport (GMMN)
Time Latitude Longitude Altitude Speed Heading
2026-04-26 22:10 14.17760 -8.05130 39019 ft 468 kts 356°
2026-04-26 22:10 14.20998 -8.05373 39019 ft 468 kts 356°
2026-04-26 22:11 14.27486 -8.05859 39019 ft 468 kts 356°
2026-04-26 22:11 14.33969 -8.06344 39019 ft 468 kts 356°
2026-04-26 22:12 14.40448 -8.06830 39019 ft 468 kts 356°
2026-04-26 22:12 14.46946 -8.07317 39019 ft 468 kts 356°
2026-04-26 22:13 14.53428 -8.07802 39019 ft 468 kts 356°
2026-04-26 22:13 14.59922 -8.08287 39019 ft 468 kts 356°
2026-04-26 22:14 14.66408 -8.08774 39019 ft 468 kts 356°
2026-04-26 22:14 14.72895 -8.09264 39019 ft 468 kts 356°
2026-04-26 22:15 14.79376 -8.09753 39019 ft 468 kts 356°
2026-04-26 22:15 14.85884 -8.10242 39019 ft 468 kts 356°
2026-04-26 22:16 14.92359 -8.10727 39019 ft 468 kts 356°
2026-04-26 22:16 14.98847 -8.11213 39019 ft 468 kts 356°
2026-04-26 22:17 15.05338 -8.11699 39019 ft 468 kts 356°
2026-04-26 22:17 15.11823 -8.12186 39019 ft 468 kts 356°
2026-04-26 22:18 15.18298 -8.12671 39019 ft 468 kts 356°
2026-04-26 22:18 15.24786 -8.13158 39019 ft 468 kts 356°
2026-04-26 22:19 15.31289 -8.13647 39019 ft 468 kts 356°
2026-04-26 22:19 15.37749 -8.14133 39019 ft 468 kts 356°
2026-04-26 22:20 15.44237 -8.14621 39019 ft 468 kts 356°
2026-04-26 22:20 15.50726 -8.15108 39019 ft 468 kts 356°
2026-04-26 22:21 15.57217 -8.15596 39019 ft 468 kts 356°
2026-04-26 22:21 15.63711 -8.16083 39019 ft 468 kts 356°
2026-04-26 22:22 15.70199 -8.16569 39019 ft 468 kts 356°
2026-04-26 22:22 15.76711 -8.17064 39019 ft 468 kts 356°
2026-04-26 22:23 15.83208 -8.17561 39019 ft 468 kts 356°
2026-04-26 22:23 15.89703 -8.18056 39019 ft 468 kts 356°
2026-04-26 22:24 15.96192 -8.18549 39019 ft 468 kts 356°
2026-04-26 22:24 16.02690 -8.19041 39019 ft 468 kts 356°
2026-04-26 22:25 16.09188 -8.19534 39019 ft 468 kts 356°
2026-04-26 22:25 16.15510 -8.20012 39019 ft 468 kts 356°
2026-04-26 22:26 16.22000 -8.20503 39019 ft 468 kts 356°
2026-04-26 22:26 16.28493 -8.21000 39019 ft 468 kts 356°
2026-04-26 22:27 16.34970 -8.21499 39019 ft 468 kts 356°
2026-04-26 22:27 16.41469 -8.21996 39019 ft 468 kts 356°
2026-04-26 22:28 16.47969 -8.22492 39019 ft 468 kts 356°
2026-04-26 22:28 16.54463 -8.22987 39019 ft 468 kts 356°
2026-04-26 22:29 16.60954 -8.23482 39019 ft 468 kts 356°
2026-04-26 22:29 16.67447 -8.23978 39019 ft 468 kts 356°
2026-04-26 22:30 16.73941 -8.24473 39019 ft 468 kts 356°
2026-04-26 22:30 16.80437 -8.24969 39019 ft 468 kts 356°
2026-04-26 22:31 16.86941 -8.25467 39019 ft 468 kts 356°
2026-04-26 22:31 16.93402 -8.25961 39019 ft 468 kts 356°
2026-04-26 22:32 16.99915 -8.26459 39019 ft 468 kts 356°
2026-04-26 22:32 17.06399 -8.26956 39019 ft 468 kts 356°
2026-04-26 22:33 17.16132 -8.27702 39019 ft 468 kts 356°
2026-04-26 22:34 17.22654 -8.28202 39019 ft 468 kts 356°
2026-04-26 22:34 17.29113 -8.28697 39018 ft 468 kts 356°
2026-04-26 22:35 17.35622 -8.29197 39018 ft 468 kts 356°
2026-04-26 22:35 17.42111 -8.29696 39018 ft 468 kts 356°
2026-04-26 22:36 17.48526 -8.30190 39018 ft 468 kts 356°
2026-04-26 22:36 17.54442 -8.30645 39018 ft 468 kts 356°
2026-04-26 22:37 17.60939 -8.31146 39016 ft 468 kts 356°
2026-04-26 22:37 17.67109 -8.31622 39017 ft 468 kts 356°
2026-04-26 22:38 17.73617 -8.32124 39018 ft 468 kts 356°
2026-04-26 22:38 17.80075 -8.32622 39019 ft 468 kts 356°
2026-04-26 22:39 17.86577 -8.33125 39019 ft 468 kts 356°
2026-04-26 22:39 17.93076 -8.33627 39019 ft 468 kts 356°
2026-04-26 22:40 17.99556 -8.34129 39019 ft 468 kts 356°
2026-04-26 22:40 18.06034 -8.34630 39019 ft 468 kts 356°
2026-04-26 22:41 18.12529 -8.35133 39019 ft 468 kts 356°
2026-04-26 22:41 18.19016 -8.35636 39019 ft 468 kts 356°
2026-04-26 22:42 18.25504 -8.36139 39019 ft 468 kts 356°
2026-04-26 22:42 18.32002 -8.36644 39019 ft 468 kts 356°
2026-04-26 22:43 18.38491 -8.37148 39019 ft 468 kts 356°
2026-04-26 22:43 18.44966 -8.37651 39019 ft 468 kts 356°
2026-04-26 22:44 18.51465 -8.38157 39019 ft 468 kts 356°
2026-04-26 22:44 18.57954 -8.38663 39019 ft 468 kts 356°
2026-04-26 22:45 18.64441 -8.39168 39019 ft 468 kts 356°
2026-04-26 22:45 18.70746 -8.39660 39019 ft 468 kts 356°
2026-04-26 22:46 18.77419 -8.40181 39019 ft 468 kts 356°
2026-04-26 22:46 18.83924 -8.40689 39019 ft 468 kts 356°
2026-04-26 22:47 18.90411 -8.41196 39019 ft 468 kts 356°
2026-04-26 22:47 18.96780 -8.41694 39019 ft 468 kts 356°
2026-04-26 22:48 19.03264 -8.42201 39019 ft 468 kts 356°
2026-04-26 22:48 19.09752 -8.42709 39019 ft 468 kts 356°
2026-04-26 22:49 19.16005 -8.43198 39019 ft 468 kts 356°
2026-04-26 22:49 19.22484 -8.43706 39019 ft 468 kts 356°
2026-04-26 22:50 19.28958 -8.44212 39019 ft 468 kts 356°
2026-04-26 22:50 19.35446 -8.44720 39019 ft 468 kts 356°
2026-04-26 22:51 19.41932 -8.45227 39019 ft 468 kts 356°
2026-04-26 22:51 19.48422 -8.45739 39019 ft 468 kts 356°
2026-04-26 22:52 19.54922 -8.46257 39019 ft 468 kts 356°
2026-04-26 22:52 19.61393 -8.46770 39019 ft 468 kts 356°
2026-04-26 22:53 19.67875 -8.47282 39019 ft 468 kts 356°
2026-04-26 22:53 19.74366 -8.47794 39019 ft 468 kts 356°
2026-04-26 22:54 19.80856 -8.48306 39019 ft 468 kts 356°
2026-04-26 22:54 19.87349 -8.48817 39019 ft 468 kts 356°
2026-04-26 22:55 19.93856 -8.49329 39019 ft 468 kts 356°
2026-04-26 22:55 20.00351 -8.49843 39019 ft 468 kts 356°
2026-04-26 22:56 20.06870 -8.50368 39019 ft 468 kts 356°
2026-04-26 22:56 20.13339 -8.50887 39019 ft 468 kts 356°
2026-04-26 22:57 20.19732 -8.51397 39019 ft 468 kts 356°
2026-04-26 22:57 20.26216 -8.51913 39019 ft 468 kts 356°
2026-04-26 22:58 20.32697 -8.52430 39019 ft 468 kts 356°
2026-04-26 22:58 20.39193 -8.52948 39019 ft 468 kts 356°
2026-04-26 22:59 20.45682 -8.53466 39019 ft 468 kts 356°
2026-04-26 22:59 20.52184 -8.53985 39019 ft 468 kts 356°
2026-04-26 23:00 20.58664 -8.54503 39019 ft 468 kts 356°
2026-04-26 23:00 20.65161 -8.55023 39019 ft 468 kts 356°
2026-04-26 23:01 20.71657 -8.55543 39019 ft 468 kts 356°
2026-04-26 23:01 20.78139 -8.56063 39019 ft 468 kts 356°
2026-04-26 23:02 20.84625 -8.56583 39019 ft 468 kts 356°
2026-04-26 23:02 20.91128 -8.57105 39019 ft 468 kts 356°
2026-04-26 23:03 20.97618 -8.57627 39019 ft 468 kts 356°
2026-04-26 23:03 21.04106 -8.58149 39019 ft 468 kts 356°
2026-04-26 23:04 21.10632 -8.58674 39019 ft 468 kts 356°
2026-04-26 23:04 21.17119 -8.59196 39019 ft 468 kts 356°
2026-04-26 23:05 21.23597 -8.59718 39019 ft 468 kts 356°
2026-04-26 23:05 21.30108 -8.60243 39019 ft 468 kts 356°
2026-04-26 23:06 21.36118 -8.60729 39019 ft 468 kts 356°
2026-04-26 23:06 21.42397 -8.61236 39019 ft 468 kts 356°
2026-04-26 23:07 21.48886 -8.61761 39019 ft 468 kts 356°
2026-04-26 23:07 21.55374 -8.62286 39019 ft 468 kts 356°
2026-04-26 23:08 21.61850 -8.62811 39019 ft 468 kts 356°
2026-04-26 23:08 21.68342 -8.63337 39019 ft 468 kts 356°
2026-04-26 23:09 21.74835 -8.63864 39019 ft 468 kts 356°
2026-04-26 23:09 21.81323 -8.64391 39019 ft 468 kts 356°
2026-04-26 23:10 21.87813 -8.64918 39019 ft 468 kts 356°
2026-04-26 23:10 21.94305 -8.65444 39019 ft 468 kts 355°
2026-04-26 23:11 22.00792 -8.65970 39019 ft 468 kts 355°
2026-04-26 23:11 22.07276 -8.66495 39019 ft 468 kts 355°
2026-04-26 23:12 22.13764 -8.67024 39019 ft 468 kts 355°
2026-04-26 23:12 22.20254 -8.67563 39019 ft 468 kts 355°
2026-04-26 23:13 22.26739 -8.68099 39019 ft 468 kts 355°
2026-04-26 23:13 22.33249 -8.68633 39019 ft 468 kts 355°
2026-04-26 23:14 22.39720 -8.69164 39019 ft 468 kts 355°
2026-04-26 23:14 22.46214 -8.69697 39019 ft 468 kts 355°
2026-04-26 23:15 22.52701 -8.70230 39019 ft 468 kts 355°
2026-04-26 23:15 22.59187 -8.70763 39019 ft 468 kts 355°
2026-04-26 23:16 22.65705 -8.71299 39019 ft 468 kts 355°
2026-04-26 23:16 22.72170 -8.71831 39019 ft 468 kts 355°
2026-04-26 23:17 22.78653 -8.72365 39019 ft 468 kts 355°
2026-04-26 23:17 22.85141 -8.72900 39019 ft 468 kts 355°
2026-04-26 23:18 22.91639 -8.73437 39019 ft 468 kts 355°
2026-04-26 23:18 22.98090 -8.73970 39019 ft 468 kts 355°
2026-04-26 23:19 23.04570 -8.74506 39019 ft 468 kts 355°
2026-04-26 23:19 23.11065 -8.75044 39019 ft 468 kts 355°
2026-04-26 23:20 23.17524 -8.75579 39019 ft 468 kts 355°
2026-04-26 23:20 23.24011 -8.76118 39019 ft 468 kts 355°
2026-04-26 23:21 23.30488 -8.76655 39019 ft 468 kts 355°
2026-04-26 23:21 23.36979 -8.77195 39019 ft 468 kts 355°
2026-04-26 23:22 23.43451 -8.77733 39019 ft 468 kts 355°
2026-04-26 23:22 23.49931 -8.78273 39019 ft 468 kts 355°
2026-04-26 23:23 23.56443 -8.78815 39019 ft 468 kts 355°
2026-04-26 23:23 23.62666 -8.79335 39019 ft 468 kts 355°
2026-04-26 23:24 23.69144 -8.79875 39019 ft 468 kts 355°
2026-04-26 23:24 23.75620 -8.80416 39019 ft 468 kts 355°
2026-04-26 23:25 23.82118 -8.80960 39019 ft 468 kts 355°
2026-04-26 23:25 23.88596 -8.81502 39019 ft 468 kts 355°
2026-04-26 23:26 23.95072 -8.82044 39019 ft 468 kts 355°
2026-04-26 23:26 24.01543 -8.82586 39019 ft 468 kts 355°
2026-04-26 23:27 24.08014 -8.83128 39019 ft 468 kts 355°
2026-04-26 23:27 24.14492 -8.83671 39019 ft 468 kts 355°
2026-04-26 23:28 24.20999 -8.84215 39019 ft 468 kts 355°
2026-04-26 23:28 24.27463 -8.84760 39019 ft 468 kts 355°
2026-04-26 23:29 24.33952 -8.85316 39019 ft 468 kts 355°
2026-04-26 23:29 24.40442 -8.85869 39019 ft 468 kts 355°
2026-04-26 23:30 24.46930 -8.86419 39019 ft 468 kts 355°
2026-04-26 23:30 24.53412 -8.86968 39019 ft 468 kts 355°
2026-04-26 23:31 24.59894 -8.87517 39019 ft 468 kts 355°
2026-04-26 23:31 24.66386 -8.88067 39019 ft 468 kts 355°
2026-04-26 23:32 24.72857 -8.88616 39019 ft 468 kts 355°
2026-04-26 23:32 24.79340 -8.89167 39019 ft 468 kts 355°
2026-04-26 23:33 24.85825 -8.89719 39019 ft 468 kts 355°
2026-04-26 23:33 24.92310 -8.90271 39019 ft 468 kts 355°
2026-04-26 23:34 24.98786 -8.90823 39019 ft 468 kts 355°
2026-04-26 23:34 25.05272 -8.91376 39019 ft 468 kts 355°
2026-04-26 23:35 25.11761 -8.91930 39019 ft 468 kts 355°
2026-04-26 23:35 25.18246 -8.92485 39019 ft 468 kts 355°
2026-04-26 23:36 25.23483 -8.92933 39019 ft 468 kts 355°
2026-04-26 23:36 25.29752 -8.93470 39019 ft 468 kts 355°
2026-04-26 23:37 25.36282 -8.94030 39019 ft 468 kts 355°
2026-04-26 23:37 25.42729 -8.94583 39019 ft 468 kts 355°
2026-04-26 23:38 25.49191 -8.95138 39019 ft 468 kts 355°
2026-04-26 23:38 25.55649 -8.95694 39019 ft 468 kts 355°
2026-04-26 23:39 25.62113 -8.96250 39019 ft 468 kts 355°
2026-04-26 23:39 25.68587 -8.96809 39019 ft 468 kts 355°
2026-04-26 23:40 25.75064 -8.97367 39019 ft 468 kts 355°
2026-04-26 23:40 25.81544 -8.97927 39019 ft 468 kts 355°
2026-04-26 23:41 25.88017 -8.98487 39019 ft 468 kts 355°
2026-04-26 23:41 25.94492 -8.99048 39019 ft 468 kts 355°
2026-04-26 23:42 26.00977 -8.99610 39019 ft 468 kts 355°
2026-04-26 23:42 26.10700 -9.00454 39019 ft 468 kts 355°
2026-04-26 23:43 26.17162 -9.01016 39019 ft 468 kts 355°
2026-04-26 23:43 26.23649 -9.01580 39019 ft 468 kts 355°
2026-04-26 23:44 26.30109 -9.02143 39019 ft 468 kts 355°
2026-04-26 23:44 26.36554 -9.02705 39019 ft 468 kts 355°
2026-04-26 23:45 26.43018 -9.03269 39019 ft 468 kts 355°
2026-04-26 23:45 26.49491 -9.03835 39019 ft 468 kts 355°
2026-04-26 23:46 26.55970 -9.04402 39019 ft 468 kts 355°
2026-04-26 23:46 26.62482 -9.04972 39019 ft 468 kts 355°
2026-04-26 23:47 26.68928 -9.05537 39019 ft 468 kts 355°
2026-04-26 23:47 26.75393 -9.06105 39019 ft 468 kts 355°
2026-04-26 23:48 26.81869 -9.06674 39083 ft 470 kts 355°
2026-04-26 23:48 26.85132 -9.06961 39323 ft 469 kts 355°
2026-04-26 23:48 26.88367 -9.07246 39585 ft 468 kts 355°
2026-04-26 23:49 26.91600 -9.07530 39815 ft 467 kts 355°
2026-04-26 23:49 26.94830 -9.07815 40018 ft 467 kts 355°
2026-04-26 23:49 26.98078 -9.08101 40209 ft 467 kts 355°
2026-04-26 23:49 27.01286 -9.08384 40391 ft 467 kts 355°
2026-04-26 23:50 27.04520 -9.08669 40571 ft 467 kts 355°
2026-04-26 23:50 27.07743 -9.08954 40744 ft 467 kts 355°
2026-04-26 23:50 27.10556 -9.09202 40890 ft 467 kts 355°
2026-04-26 23:50 27.13768 -9.09486 41011 ft 468 kts 355°
2026-04-26 23:51 27.20223 -9.10056 41019 ft 468 kts 355°
2026-04-26 23:51 27.26673 -9.10627 41020 ft 468 kts 355°
2026-04-26 23:52 27.33137 -9.11199 41020 ft 468 kts 355°
2026-04-26 23:52 27.39602 -9.11771 41020 ft 468 kts 355°
2026-04-26 23:53 27.46091 -9.12345 41020 ft 468 kts 355°
2026-04-26 23:53 27.52540 -9.12915 41020 ft 468 kts 355°
2026-04-26 23:54 27.59014 -9.13469 41020 ft 468 kts 357°
2026-04-26 23:54 27.65514 -9.13503 41020 ft 468 kts
2026-04-26 23:55 27.71947 -9.12750 41020 ft 468 kts
2026-04-26 23:55 27.78279 -9.11296 41021 ft 468 kts 13°
2026-04-26 23:56 27.84663 -9.09653 41020 ft 468 kts 13°
2026-04-26 23:56 27.91004 -9.08024 41020 ft 468 kts 13°
2026-04-26 23:57 27.97322 -9.06410 41020 ft 468 kts 13°
2026-04-26 23:57 28.03666 -9.04792 41020 ft 468 kts 13°
2026-04-26 23:58 28.09992 -9.03177 41020 ft 468 kts 13°
2026-04-26 23:58 28.16332 -9.01557 41020 ft 468 kts 13°
2026-04-26 23:59 28.22671 -8.99936 41020 ft 468 kts 13°
2026-04-26 23:59 28.28994 -8.98316 41020 ft 468 kts 13°
2026-04-27 00:00 28.35350 -8.96686 41020 ft 468 kts 13°
2026-04-27 00:00 28.41664 -8.95065 41020 ft 468 kts 13°
2026-04-27 00:01 28.48007 -8.93434 41020 ft 468 kts 13°
2026-04-27 00:01 28.54333 -8.91806 41020 ft 468 kts 13°
2026-04-27 00:02 28.60677 -8.90171 41020 ft 468 kts 13°
2026-04-27 00:02 28.66997 -8.88539 41020 ft 468 kts 13°
2026-04-27 00:03 28.73349 -8.86897 41020 ft 468 kts 13°
2026-04-27 00:03 28.79676 -8.85260 41020 ft 468 kts 13°
2026-04-27 00:04 28.86003 -8.83619 41020 ft 468 kts 13°
2026-04-27 00:04 28.92319 -8.81977 41020 ft 468 kts 13°
2026-04-27 00:05 28.98654 -8.80329 41020 ft 468 kts 13°
2026-04-27 00:05 29.04975 -8.78691 41020 ft 468 kts 12°
2026-04-27 00:06 29.11329 -8.77042 41020 ft 468 kts 13°
2026-04-27 00:06 29.17544 -8.75424 41020 ft 468 kts 13°
2026-04-27 00:07 29.23824 -8.73784 41020 ft 468 kts 13°
2026-04-27 00:07 29.30064 -8.72151 41020 ft 468 kts 13°
2026-04-27 00:08 29.36364 -8.70501 41020 ft 468 kts 13°
2026-04-27 00:08 29.42678 -8.68845 41020 ft 468 kts 13°
2026-04-27 00:09 29.48989 -8.67187 41020 ft 468 kts 13°
2026-04-27 00:09 29.55313 -8.65524 41020 ft 468 kts 13°
2026-04-27 00:10 29.61635 -8.63859 41020 ft 468 kts 13°
2026-04-27 00:10 29.67944 -8.62195 41020 ft 468 kts 13°
2026-04-27 00:11 29.74251 -8.60530 41020 ft 468 kts 13°
2026-04-27 00:11 29.80556 -8.58863 41020 ft 468 kts 13°
2026-04-27 00:12 29.86866 -8.57193 41020 ft 468 kts 13°
2026-04-27 00:12 29.93177 -8.55520 41020 ft 468 kts 13°
2026-04-27 00:13 29.99493 -8.53843 41020 ft 468 kts 13°
2026-04-27 00:13 30.05797 -8.52168 41020 ft 468 kts 13°
2026-04-27 00:14 30.12027 -8.50510 41020 ft 468 kts 13°
2026-04-27 00:14 30.18329 -8.48831 41020 ft 468 kts 13°
2026-04-27 00:15 30.24639 -8.47147 41020 ft 468 kts 13°
2026-04-27 00:15 30.30818 -8.45495 41020 ft 468 kts 13°
2026-04-27 00:16 30.37138 -8.43803 41020 ft 468 kts 13°
2026-04-27 00:16 30.43438 -8.42113 41020 ft 468 kts 13°
2026-04-27 00:17 30.49759 -8.40414 41020 ft 468 kts 13°
2026-04-27 00:17 30.56073 -8.38714 41020 ft 468 kts 13°
2026-04-27 00:18 30.62385 -8.37028 41020 ft 468 kts 12°
2026-04-27 00:18 30.68693 -8.35350 41020 ft 468 kts 12°
2026-04-27 00:19 30.75020 -8.33660 41020 ft 468 kts 13°
2026-04-27 00:19 30.81350 -8.31963 41020 ft 468 kts 13°
2026-04-27 00:20 30.87644 -8.30273 41020 ft 468 kts 13°
2026-04-27 00:20 30.93948 -8.28578 41020 ft 468 kts 13°
2026-04-27 00:21 31.00261 -8.26878 41020 ft 468 kts 13°
2026-04-27 00:21 31.06572 -8.25175 41020 ft 468 kts 13°
2026-04-27 00:22 31.12892 -8.23468 41020 ft 468 kts 13°
2026-04-27 00:22 31.19222 -8.21756 41020 ft 468 kts 13°
2026-04-27 00:23 31.25517 -8.20050 41020 ft 468 kts 13°
2026-04-27 00:23 31.31830 -8.18337 41020 ft 468 kts 13°
2026-04-27 00:24 31.38174 -8.16613 40466 ft 471 kts 13°
2026-04-27 00:24 31.41339 -8.15751 40132 ft 465 kts 13°
2026-04-27 00:24 31.44465 -8.14897 39882 ft 458 kts 13°
2026-04-27 00:25 31.47547 -8.14055 39635 ft 456 kts 13°
2026-04-27 00:25 31.50608 -8.13219 39389 ft 456 kts 13°
2026-04-27 00:25 31.53684 -8.12381 39141 ft 456 kts 13°
2026-04-27 00:25 31.56749 -8.11495 38884 ft 456 kts 15°
2026-04-27 00:26 31.59760 -8.10450 38504 ft 455 kts 18°
2026-04-27 00:26 31.62726 -8.09218 37860 ft 458 kts 21°
2026-04-27 00:26 31.65680 -8.07775 36835 ft 469 kts 24°
2026-04-27 00:26 31.68624 -8.06134 35876 ft 477 kts 26°
2026-04-27 00:27 31.71619 -8.04398 35098 ft 480 kts 26°
2026-04-27 00:27 31.74570 -8.02674 34385 ft 481 kts 26°
2026-04-27 00:27 31.77543 -8.00938 33665 ft 482 kts 26°
2026-04-27 00:27 31.80521 -7.99202 32935 ft 483 kts 26°
2026-04-27 00:28 31.83510 -7.97461 32348 ft 480 kts 26°
2026-04-27 00:28 31.86453 -7.95748 31998 ft 470 kts 26°
2026-04-27 00:28 31.89277 -7.94105 31720 ft 457 kts 26°
2026-04-27 00:28 31.92034 -7.92500 31292 ft 450 kts 26°
2026-04-27 00:29 31.94803 -7.90887 30736 ft 445 kts 26°
2026-04-27 00:29 31.97547 -7.89288 30160 ft 441 kts 26°
2026-04-27 00:29 32.00266 -7.87702 29582 ft 437 kts 26°
2026-04-27 00:29 32.02969 -7.86125 29007 ft 433 kts 26°
2026-04-27 00:30 32.05645 -7.84562 28438 ft 429 kts 26°
2026-04-27 00:30 32.08299 -7.83012 27869 ft 425 kts 26°
2026-04-27 00:30 32.10926 -7.81476 27295 ft 422 kts 26°
2026-04-27 00:30 32.13526 -7.79955 26734 ft 418 kts 26°
2026-04-27 00:31 32.16085 -7.78458 26179 ft 414 kts 26°
2026-04-27 00:31 32.18605 -7.76982 25631 ft 411 kts 26°
2026-04-27 00:31 32.21092 -7.75525 25085 ft 407 kts 26°
2026-04-27 00:31 32.23537 -7.74091 24549 ft 404 kts 26°
2026-04-27 00:32 32.25974 -7.72661 24019 ft 400 kts 26°
2026-04-27 00:32 32.28387 -7.71244 23486 ft 397 kts 26°
2026-04-27 00:32 32.30794 -7.69830 22953 ft 394 kts 26°
2026-04-27 00:32 32.33136 -7.68453 22340 ft 390 kts 26°
2026-04-27 00:33 32.35495 -7.67065 21871 ft 381 kts 26°
2026-04-27 00:33 32.37776 -7.65723 21624 ft 367 kts 26°
2026-04-27 00:33 32.39990 -7.64418 21301 ft 357 kts 26°
2026-04-27 00:33 32.42123 -7.63161 20796 ft 353 kts 26°
2026-04-27 00:34 32.44256 -7.61902 20249 ft 350 kts 26°
2026-04-27 00:34 32.46387 -7.60645 19707 ft 348 kts 26°
2026-04-27 00:34 32.48477 -7.59411 19177 ft 345 kts 26°
2026-04-27 00:34 32.50565 -7.58177 18646 ft 342 kts 26°
2026-04-27 00:35 32.52583 -7.56984 18130 ft 339 kts 26°
2026-04-27 00:35 32.54648 -7.55763 17602 ft 337 kts 26°
2026-04-27 00:35 32.56695 -7.54551 17079 ft 334 kts 26°
2026-04-27 00:35 32.58729 -7.53347 16486 ft 331 kts 26°
2026-04-27 00:36 32.60591 -7.52245 15924 ft 328 kts 26°
2026-04-27 00:36 32.61799 -7.51530 15565 ft 326 kts 26°
2026-04-27 00:36 32.63850 -7.50588 14967 ft 324 kts 13°
2026-04-27 00:36 32.65987 -7.50329 14385 ft 321 kts
2026-04-27 00:37 32.68139 -7.50324 13819 ft 318 kts 359°
2026-04-27 00:37 32.70306 -7.50349 13237 ft 315 kts 359°
2026-04-27 00:37 32.71980 -7.50370 12789 ft 313 kts 359°
2026-04-27 00:37 32.74102 -7.50392 12222 ft 310 kts 359°
2026-04-27 00:38 32.76187 -7.50408 11665 ft 308 kts 359°
2026-04-27 00:38 32.77935 -7.50420 11212 ft 305 kts 359°
2026-04-27 00:38 32.79310 -7.50427 11007 ft 297 kts 359°
2026-04-27 00:38 32.81317 -7.50439 10756 ft 285 kts 359°
2026-04-27 00:39 32.83237 -7.50449 10395 ft 279 kts 359°
2026-04-27 00:39 32.85141 -7.50459 9939 ft 277 kts 359°
2026-04-27 00:39 32.87030 -7.50469 9479 ft 276 kts 359°
2026-04-27 00:39 32.88915 -7.50481 9024 ft 274 kts 359°
2026-04-27 00:40 32.90773 -7.50494 8575 ft 272 kts 359°
2026-04-27 00:40 32.92619 -7.50366 8112 ft 270 kts 14°
2026-04-27 00:40 32.94248 -7.49367 7637 ft 269 kts 43°
2026-04-27 00:40 32.95286 -7.47562 7178 ft 267 kts 71°
2026-04-27 00:41 32.95579 -7.45414 6732 ft 264 kts 93°
2026-04-27 00:41 32.95085 -7.43349 6266 ft 263 kts 122°
2026-04-27 00:41 32.93811 -7.41833 5813 ft 261 kts 149°
2026-04-27 00:41 32.92237 -7.40786 5395 ft 259 kts 149°
2026-04-27 00:42 32.90577 -7.40023 4931 ft 258 kts 176°
2026-04-27 00:42 32.88863 -7.40495 4473 ft 257 kts 212°
2026-04-27 00:42 32.87608 -7.41952 4053 ft 254 kts 239°
2026-04-27 00:42 32.87038 -7.43908 3698 ft 250 kts 264°
2026-04-27 00:43 32.87016 -7.45970 3667 ft 253 kts 276°
2026-04-27 00:43 32.87516 -7.47979 3665 ft 260 kts 299°
2026-04-27 00:43 32.88672 -7.49604 3658 ft 263 kts 323°
2026-04-27 00:43 32.90311 -7.50501 3656 ft 264 kts 349°
2026-04-27 00:44 32.92129 -7.50646 3662 ft 264 kts 360°
2026-04-27 00:44 32.93948 -7.50620 3655 ft 259 kts
2026-04-27 00:44 32.95706 -7.50582 3651 ft 249 kts
2026-04-27 00:44 32.97392 -7.50562 3648 ft 239 kts
2026-04-27 00:45 32.99010 -7.50555 3648 ft 231 kts 360°
2026-04-27 00:45 33.00621 -7.50555 3653 ft 232 kts 360°
2026-04-27 00:45 33.02228 -7.50559 3652 ft 230 kts 359°
2026-04-27 00:45 33.03782 -7.50566 3643 ft 218 kts 359°
2026-04-27 00:46 33.05254 -7.50573 3638 ft 207 kts 359°
2026-04-27 00:46 33.06648 -7.50581 3636 ft 195 kts 359°
2026-04-27 00:46 33.07963 -7.50556 3638 ft 188 kts
2026-04-27 00:46 33.09268 -7.50474 3649 ft 189 kts
2026-04-27 00:47 33.10577 -7.50524 3653 ft 189 kts 353°
2026-04-27 00:47 33.11869 -7.50783 3655 ft 189 kts 347°
2026-04-27 00:47 33.13134 -7.51154 3655 ft 189 kts 345°
2026-04-27 00:47 33.14401 -7.51568 3655 ft 189 kts 344°
2026-04-27 00:48 33.15658 -7.51992 3655 ft 189 kts 343°
2026-04-27 00:48 33.16917 -7.52421 3655 ft 189 kts 343°
2026-04-27 00:48 33.18176 -7.52852 3655 ft 189 kts 343°
2026-04-27 00:48 33.19433 -7.53282 3654 ft 188 kts 343°
2026-04-27 00:49 33.20684 -7.53711 3581 ft 189 kts 343°
2026-04-27 00:49 33.21933 -7.54138 3339 ft 189 kts 343°
2026-04-27 00:49 33.23173 -7.54562 3084 ft 187 kts 343°
2026-04-27 00:49 33.24386 -7.54977 2838 ft 186 kts 343°
2026-04-27 00:50 33.25611 -7.55397 2600 ft 182 kts 343°
2026-04-27 00:50 33.27917 -7.56187 2122 ft 166 kts 343°
2026-04-27 00:50 33.28985 -7.56552 1905 ft 157 kts 343°
2026-04-27 00:51 33.29999 -7.56899 1705 ft 148 kts 343°
2026-04-27 00:51 33.30970 -7.57232 1525 ft 146 kts 343°
2026-04-27 00:51 33.31938 -7.57567 1343 ft 146 kts 343°
2026-04-27 00:51 33.32905 -7.57900 1151 ft 145 kts 343°
2026-04-27 00:52 33.33873 -7.58230 957 ft 145 kts 343°
2026-04-27 00:52 33.34834 -7.58556 768 ft 144 kts 343°
2026-04-27 00:52 33.35777 -7.58885 674 ft 135 kts 342°
2026-04-27 00:52 33.36512 -7.59155 673 ft 92 kts 349°
2026-04-27 00:53 33.37004 -7.59313 673 ft 42 kts 346°
2026-04-27 00:53 33.37277 -7.59321 673 ft 39 kts 14°
2026-04-27 00:53 33.37360 -7.59292 673 ft 0 kts 17°
2026-04-27 00:53 33.37369 -7.59289 673 ft 4 kts 17°
2026-04-27 00:54 33.37409 -7.59275 673 ft 7 kts 15°
2026-04-27 00:54 33.37464 -7.59256 673 ft 9 kts 14°
2026-04-27 00:54 33.37539 -7.59234 673 ft 16 kts 12°
2026-04-27 00:54 33.37667 -7.59203 673 ft 19 kts 11°
2026-04-27 00:55 33.37787 -7.59142 673 ft 18 kts 38°
2026-04-27 00:55 33.37839 -7.59011 673 ft 17 kts 74°
2026-04-27 00:55 33.37869 -7.58868 673 ft 17 kts 75°
2026-04-27 00:55 33.37902 -7.58726 673 ft 17 kts 77°
2026-04-27 00:56 33.37876 -7.58595 673 ft 16 kts 124°
2026-04-27 00:56 33.37788 -7.58517 673 ft 16 kts 158°
2026-04-27 00:56 33.37680 -7.58488 673 ft 16 kts 170°
2026-04-27 00:56 33.37569 -7.58461 673 ft 16 kts 165°
2026-04-27 00:57 33.37511 -7.58421 673 ft 6 kts 104°
2026-04-27 00:57 33.37519 -7.58371 673 ft 7 kts 74°
2026-04-27 00:57 33.37533 -7.58313 673 ft 3 kts 71°
2026-04-27 00:57 33.37534 -7.58311 673 ft 1 kts 71°
2026-04-27 00:58 33.37535 -7.58306 673 ft 0 kts 71°